Retour au catalogue

SL-16 DEB

ActifLEO
NORAD 16389·DEBRIS·🇷🇺 Russia

Lancé Oct 22, 1985 depuis Baikonur Cosmodrome

Loading…

Prochains Passages (prochaines 24 heures)

TLE

FraisSource: Space-Track

Époque: Sep 14, 2026, 11:46 UTC

1 16389U 85097C   26257.49047566  .00000011  00000-0  47396-4 0  9994
2 16389  71.0034 346.3322 0186860  52.1730 309.6120 13.76784803 53381

Suivez SL-16 DEB en temps réel avec AllMySat

Download on the App Store